Time,TemperatureF,DewpointF,PressureIn,WindDirection,WindDirectionDegrees,WindSpeedMPH,WindSpeedGustMPH,Humidity,HourlyPrecipIn,Conditions,Clouds,dailyrainin,SoftwareType,DateUTC
2013-02-12 00:02:00,23.0,-99.9,29.97,SW,222,5.0,7.0,-999,-99.99,,,-99.99,,2013-02-12 06:02:00,
2013-02-12 00:12:00,23.0,-99.9,29.97,SW,222,5.0,7.0,-999,-99.99,,,-99.99,,2013-02-12 06:12:00,
2013-02-12 00:22:00,23.0,-99.9,29.97,SW,222,5.0,7.0,-999,-99.99,,,-99.99,,2013-02-12 06:22:00,
2013-02-12 00:52:00,22.0,-99.9,29.98,WSW,240,5.0,8.0,-999,-99.99,,,-99.99,,2013-02-12 06:52:00,
2013-02-12 01:12:00,22.0,-99.9,29.97,WSW,242,7.0,9.0,-999,-99.99,,,-99.99,,2013-02-12 07:12:00,
2013-02-12 02:52:00,21.0,-99.9,29.96,West,261,10.0,12.0,-999,-99.99,,,-99.99,,2013-02-12 08:52:00,
2013-02-12 03:11:00,21.0,-99.9,29.96,WSW,255,10.0,12.0,-999,-99.99,,,-99.99,,2013-02-12 09:11:00,
2013-02-12 04:22:00,18.0,-99.9,29.95,WSW,238,9.0,13.0,-999,-99.99,,,-99.99,,2013-02-12 10:22:00,
2013-02-12 04:52:00,16.0,-99.9,29.96,SW,214,8.0,12.0,-999,-99.99,,,-99.99,,2013-02-12 10:52:00,
2013-02-12 05:11:00,16.0,-99.9,29.97,SSW,211,11.0,13.0,-999,-99.99,,,-99.99,,2013-02-12 11:11:00,
2013-02-12 05:53:00,14.0,-99.9,29.98,SSW,209,6.0,9.0,-999,-99.99,,,-99.99,,2013-02-12 11:53:00,
2013-02-12 06:22:00,15.0,-99.9,29.98,WSW,239,10.0,15.0,-999,-99.99,,,-99.99,,2013-02-12 12:22:00,
2013-02-12 06:42:00,13.0,-99.9,29.98,SW,219,8.0,11.0,-999,-99.99,,,-99.99,,2013-02-12 12:42:00,
2013-02-12 07:22:00,14.0,-99.9,29.97,SSW,207,8.0,11.0,-999,-99.99,,,-99.99,,2013-02-12 13:22:00,
2013-02-12 07:52:00,14.0,-99.9,29.96,SSW,212,9.0,11.0,-999,-99.99,,,-99.99,,2013-02-12 13:52:00,
2013-02-12 08:12:00,14.0,-99.9,29.96,SW,229,7.0,9.0,-999,-99.99,,,-99.99,,2013-02-12 14:12:00,
2013-02-12 08:52:00,15.0,-99.9,29.95,WSW,243,4.0,7.0,-999,-99.99,,,-99.99,,2013-02-12 14:52:00,
2013-02-12 09:22:00,16.0,-99.9,29.94,SW,235,7.0,9.0,-999,-99.99,,,-99.99,,2013-02-12 15:22:00,
2013-02-12 09:42:00,17.0,-99.9,29.93,SW,214,8.0,10.0,-999,-99.99,,,-99.99,,2013-02-12 15:42:00,
2013-02-12 10:22:00,19.0,-99.9,29.91,SW,220,7.0,9.0,-999,-99.99,,,-99.99,,2013-02-12 16:22:00,
2013-02-12 10:52:00,20.0,-99.9,29.90,SW,229,8.0,10.0,-999,-99.99,,,-99.99,,2013-02-12 16:52:00,
2013-02-12 11:12:00,21.0,-99.9,29.90,SW,226,9.0,11.0,-999,-99.99,,,-99.99,,2013-02-12 17:12:00,
2013-02-12 12:23:00,26.0,-99.9,29.87,SW,224,13.0,17.0,-999,-99.99,,,-99.99,,2013-02-12 18:23:00,
2013-02-12 12:42:00,27.0,-99.9,29.85,SW,225,15.0,18.0,-999,-99.99,,,-99.99,,2013-02-12 18:42:00,
2013-02-12 13:52:00,30.0,-99.9,29.80,SW,214,12.0,15.0,-999,-99.99,,,-99.99,,2013-02-12 19:52:00,
2013-02-12 14:11:00,30.0,-99.9,29.80,SW,229,12.0,16.0,-999,-99.99,,,-99.99,,2013-02-12 20:11:00,
2013-02-12 15:21:00,31.0,-99.9,29.79,SW,215,14.0,17.0,-999,-99.99,,,-99.99,,2013-02-12 21:21:00,
2013-02-12 15:42:00,33.0,-99.9,29.78,SW,214,11.0,16.0,-999,-99.99,,,-99.99,,2013-02-12 21:42:00,
2013-02-12 15:52:00,32.0,-99.9,29.78,North,-999,-999.0,-999.0,-999,-99.99,,,-99.99,,2013-02-12 21:52:00,
2013-02-12 16:52:00,32.0,-99.9,29.79,SW,236,14.0,19.0,-999,-99.99,,,-99.99,,2013-02-12 22:52:00,
2013-02-12 17:02:00,32.0,-99.9,29.79,North,-999,-999.0,-999.0,-999,-99.99,,,-99.99,,2013-02-12 23:02:00,
2013-02-12 17:12:00,-999.0,-99.9,29.79,SW,232,11.0,16.0,-999,-99.99,,,-99.99,,2013-02-12 23:12:00,
2013-02-12 18:22:00,30.0,-99.9,29.79,SW,230,10.0,13.0,-999,-99.99,,,-99.99,,2013-02-13 00:22:00,
2013-02-12 18:42:00,30.0,-99.9,29.79,WSW,241,9.0,12.0,-999,-99.99,,,-99.99,,2013-02-13 00:42:00,
2013-02-12 19:52:00,28.0,-99.9,29.77,SW,225,11.0,13.0,-999,-99.99,,,-99.99,,2013-02-13 01:52:00,
2013-02-12 20:22:00,28.0,-99.9,29.77,SW,233,10.0,13.0,-999,-99.99,,,-99.99,,2013-02-13 02:22:00,
2013-02-12 20:42:00,28.0,-99.9,29.76,SW,232,10.0,12.0,-999,-99.99,,,-99.99,,2013-02-13 02:42:00,
2013-02-12 21:22:00,29.0,-99.9,29.75,SW,230,11.0,15.0,-999,-99.99,,,-99.99,,2013-02-13 03:22:00,
2013-02-12 21:52:00,28.0,-99.9,29.75,SW,225,11.0,13.0,-999,-99.99,,,-99.99,,2013-02-13 03:52:00,
2013-02-12 22:11:00,29.0,-99.9,29.74,SW,219,14.0,17.0,-999,-99.99,,,-99.99,,2013-02-13 04:11:00,
2013-02-12 22:52:00,28.0,-99.9,29.74,SW,233,11.0,15.0,-999,-99.99,,,-99.99,,2013-02-13 04:52:00,
2013-02-12 23:22:00,28.0,-99.9,29.73,SW,231,14.0,18.0,-999,-99.99,,,-99.99,,2013-02-13 05:22:00,
2013-02-12 23:42:00,28.0,-99.9,29.73,SW,231,15.0,17.0,-999,-99.99,,,-99.99,,2013-02-13 05:42:00,